Location: *
(40.7873°S, 98.7174°E)
Time: 00:56:18
(UTC+00:00)

NOAA 16 DEB - Visible Passes

Search period start: 03 February 2023 00:00
Search period end: 13 February 2023 00:00
Orbit: 703 x 828 km, 98.8° (Epoch: 22 September)

Date Brightness Start Highest point End Pass type
(mag) Time Alt. Az. Time Alt. Az. Time Alt. Az.
03 Feb ? 19:35:14 10° SE 19:39:24 27° E 19:40:52 23° NE visible
03 Feb ? 21:13:53 10° S 21:18:17 33° WSW 21:20:58 19° WNW visible
04 Feb ? 18:59:50 10° ESE 19:01:10 11° E 19:02:30 10° ENE visible
04 Feb ? 20:35:42 10° S 20:40:39 76° WSW 20:42:36 36° NNW visible
05 Feb ? 19:58:03 10° SSE 20:02:47 45° E 20:04:14 35° NE visible
05 Feb ? 21:37:44 10° SSW 21:41:18 20° WSW 21:44:20 12° WNW visible
06 Feb ? 19:21:13 10° SE 19:24:41 19° E 19:25:50 18° ENE visible
06 Feb ? 20:59:07 10° S 21:03:48 45° WSW 21:05:57 27° NW visible
07 Feb ? 20:21:08 10° SSE 20:26:03 77° ENE 20:27:33 44° N visible
07 Feb ? 22:02:09 10° SSW 22:04:13 13° WSW 22:06:17 10° W visible
08 Feb ? 19:43:43 10° SE 19:48:05 32° E 19:49:09 29° ENE visible
08 Feb ? 21:22:43 10° S 21:26:50 27° WSW 21:29:16 18° WNW visible
09 Feb ? 19:07:33 10° ESE 19:09:52 13° E 19:10:44 13° ENE visible
09 Feb ? 20:44:22 10° S 20:49:12 63° WSW 20:50:51 39° NW visible
10 Feb ? 20:06:34 10° SSE 20:11:20 54° E 20:12:25 44° NE visible
10 Feb ? 21:46:37 10° SSW 21:49:46 17° WSW 21:52:32 11° W visible
11 Feb ? 19:29:27 10° SE 19:33:15 22° E 19:33:59 22° ENE visible
11 Feb ? 21:07:46 10° S 21:12:14 38° WSW 21:14:06 27° WNW visible
12 Feb ? 20:29:36 10° SSE 20:34:29 89° WSW 20:35:40 52° NNW visible
12 Feb ? 22:11:38 10° SW 22:12:33 11° WSW 22:13:29 10° WSW visible
